[[{"header":{"parameterUnit":"m.s-1","parameterCategory":1,"la1":30.2991,"la2":30.254,"lo1":-89.0895,"lo2":-89.0444,"dy":0.0017,"dx":0.0017,"nx":28,"ny":28,"refTime":"2023-09-27T21:00:00:Z","depth":0,"parameterNumber":2,"parameterNumberName":"U-component_of_WINDS"},"data":[0,0,0,0,0,0,0,0,0,0,0,0,0,0,0,0,0,0,0,0,0,0,0,0,0,0,0,0,0,0,0,0,0,0,0,0,0,0,0,0,0,0,0,0,0,0,0,0,0,0,0,0,0,0,0,0,0,0,-3.7893,-3.7893,0,-3.79,-3.79,-3.79,-3.7774,-3.777,-3.7767,-3.7764,-3.7778,-3.7781,-3.7785,0,0,0,0,0,0,0,0,0,0,0,0,0,-3.7777,-3.778,-3.7893,-3.7893,-3.7893,-3.79,-3.79,-3.79,-3.7774,-3.777,-3.7766,-3.7762,-3.7776,-3.7781,-3.7785,0,0,0,0,0,0,0,0,0,0,0,0,0,-3.781,-3.7781,-3.7893,-3.7831,-3.7825,-3.79,-3.79,-3.79,-3.7775,-3.777,-3.7765,-3.776,-3.7775,-3.778,-3.7786,-3.7922,0,0,-3.7802,-3.7804,0,0,0,0,0,0,0,0,-3.7809,-3.7815,-3.784,-3.7835,-3.7829,-3.783,-3.7864,-3.7908,-3.7776,-3.7794,-3.7763,-3.7757,-3.78,-3.7803,-3.7816,-3.7923,-3.7923,-3.7802,-3.7806,-3.7808,-3.781,0,0,0,0,0,0,0,-3.7807,-3.7814,-3.7896,-3.784,-3.7834,-3.7805,-3.7804,-3.7872,-3.7826,-3.7792,-3.7783,-3.7785,-3.7796,-3.7811,-3.7815,-3.7923,-3.7802,-3.7807,-3.781,-3.7813,-3.8147,-3.8152,0,0,0,0,0,0,-3.7812,-3.7813,-3.7895,-3.7896,-3.7806,-3.7811,-3.781,-3.7835,-3.7825,-3.7818,-3.779,-3.778,-3.7804,-3.7809,-3.7815,-3.7976,-3.7808,-3.7813,-3.7816,-3.8141,-3.8148,-3.8154,0,0,0,0,0,0,-3.781,-3.782,-3.7895,-3.7852,-3.7859,-3.7819,-3.7848,-3.7838,-3.7853,-3.7823,-3.7815,-3.7813,-3.78,-3.7808,-3.7897,-3.7975,-3.7815,-3.782,-3.8135,-3.8143,-3.8151,-3.8299,0,0,0,0,0,0,-3.7807,-3.782,-3.787,-3.7854,-3.7862,-3.7975,-3.7853,-3.7842,-3.7862,-3.7848,-3.7843,-3.7837,-3.7797,-3.7889,-3.7902,-3.798,-3.7825,-3.8127,-3.8138,-3.8148,-3.8287,-3.8312,-3.8333,0,0,0,0,0,-3.7803,-3.7912,-3.7873,-3.7883,-3.7922,-3.7979,-3.7984,-3.7934,-3.7868,-3.7919,-3.7901,-3.7837,-3.7964,-3.79,-3.7913,-3.7993,-3.8122,-3.8135,-3.8148,-3.8277,-3.8307,-3.8332,0,0,0,0,0,0,-3.7939,-3.7908,-3.7865,-3.7971,-3.7978,-3.7958,-3.802,-3.7967,-3.7995,-3.7981,-3.792,-3.792,-3.802,-3.8015,-3.7944,-3.8127,-3.8032,-3.8048,-3.8126,-3.8154,-3.8176,-3.8176,-3.7829,0,0,0,0,0,-3.7981,-3.8027,-3.7999,-3.8095,-3.8101,-3.8061,-3.8083,-3.8044,-3.805,-3.8054,-3.8041,-3.8052,-3.8094,-3.8124,-3.8161,-3.8286,-3.8285,-3.8348,-3.8371,-3.839,-3.8405,-3.8474,-3.8502,-3.8196,-3.8196,-3.8196,0,0,-3.8069,-3.8058,-3.8091,-3.8122,-3.8124,-3.8176,-3.8064,-3.8123,-3.8162,-3.8063,-3.8146,-3.8139,-3.8147,-3.8255,-3.8302,-3.8254,-3.8489,-3.8406,-3.8421,-3.8426,-3.849,-3.8519,-3.8545,-3.8205,-3.8203,-3.8202,0,0,-3.8255,-3.8251,-3.8332,-3.8336,-3.8339,-3.8311,-3.8331,-3.8319,-3.8309,-3.8392,-3.8319,-3.8367,-3.844,-3.845,-3.8464,-3.8659,-3.8603,-3.8673,-3.8792,-3.886,-3.8884,-3.8906,-3.8978,-3.9004,-3.8688,-3.8688,-3.8688,0,-3.8365,-3.8438,-3.8381,-3.8445,-3.8463,-3.8374,-3.8458,-3.8465,-3.8482,-3.8497,-3.8443,-3.8536,-3.8535,-3.8646,-3.8693,-3.8707,-3.8731,-3.8673,-3.8885,-3.8906,-3.8925,-3.8993,-3.902,-3.8697,-3.8696,-3.8695,-3.8694,0,-3.8574,-3.8626,-3.8692,-3.8708,-3.8733,-3.8807,-3.8764,-3.8797,-3.8757,-3.8736,-3.8824,-3.882,-3.8856,-3.8879,-3.8841,-3.8987,-3.8957,-3.8895,-3.8799,-3.8964,-3.9027,-3.9052,-3.8709,-3.8706,-3.8703,-3.8701,0,0,-3.8845,-3.883,-3.8855,-3.8863,-3.8862,-3.8903,-3.8975,-3.9008,-3.9039,-3.9054,-3.9115,-3.9181,-3.9125,-3.9142,-3.9104,-3.9163,-3.9321,-3.9094,-3.9094,-3.9139,-3.9485,-3.9533,-3.9564,-3.9284,-3.9288,-3.9292,-3.9485,0,-3.9028,-3.9147,-3.9099,-3.9224,-3.9274,-3.9192,-3.9255,-3.9263,-3.9247,-3.9289,-3.9271,-3.932,-3.924,-3.925,-3.9305,-3.929,-3.939,-3.9276,-3.9343,-3.9346,-3.9345,-3.9596,-3.9646,-3.9828,-3.9509,-3.9513,-3.9516,0,-3.9256,-3.928,-3.941,-3.9402,-3.9421,-3.9479,-3.9508,-3.9548,-3.9557,-3.9541,-3.9562,-3.9512,-3.9585,-3.9489,-3.9592,-3.9515,-3.954,-3.9537,-3.9543,-3.9549,-3.9442,-3.9611,-3.9885,-3.9913,-3.9554,-3.9551,-3.9548,0,-3.9444,-3.9509,-3.9595,-3.9604,-3.9597,-3.964,-3.9639,-3.9642,-3.9667,-3.9694,-3.971,-3.9746,-3.9766,-3.9796,-3.9759,-3.9692,-3.9868,-3.9768,-3.986,-3.9862,-3.9901,-3.99,-4.0186,-3.9916,-3.9915,-3.9915,-3.9914,0,-3.9654,-3.9738,-3.968,-3.9733,-3.9825,-3.9771,-3.9865,-3.9855,-3.986,-3.9913,-3.9845,-3.9896,-3.9843,-3.9891,-3.9862,-3.9954,-3.9963,-3.9955,-3.9946,-3.9961,-3.9963,-3.9978,-3.9965,-3.9922,-3.992,-3.9919,-3.9918,0,-3.988,-3.9844,-3.9933,-3.9919,-3.9918,-3.9987,-3.9976,-4.0027,-4.0006,-4.0075,-4.0088,-4.0057,-4.0109,-4.0075,-4.0129,-4.011,-4.023,-4.0203,-4.0227,-4.022,-4.0315,-4.0307,-4.0622,-4.0661,-4.0364,-4.0367,-4.0369,0,-4.0016,-4.0078,-4.0072,-4.0101,-4.0105,-4.0153,-4.0178,-4.0129,-4.0158,-4.0174,-4.0225,-4.0271,-4.0306,-4.0395,-4.038,-4.0421,-4.0397,-4.0504,-4.0402,-4.0417,-4.0401,-4.0398,-4.0406,-4.0525,-4.0528,-4.0531,-4.0534,0,-4.0264,-4.0244,-4.0281,-4.0314,-4.0346,-4.0369,-4.0388,-4.0417,-4.0367,-4.0404,-4.0457,-4.0484,-4.0539,-4.0588,-4.0624,-4.0626,-4.0574,-4.0566,-4.059,-4.0606,-4.0618,-4.0616,-4.0284,-4.0559,-4.0556,-4.0554,-4.0553,-4.0552,-4.0451,-4.0503,-4.0507,-4.0552,-4.0561,-4.058,-4.0628,-4.0614,-4.0656,-4.0696,-4.0665,-4.0729,-4.074,-4.0782,-4.0792,-4.0843,-4.08,-4.0834,-4.0843,-4.0852,-4.0867,-4.0609,-4.0849,-4.0849,-4.0848,-4.0847,-4.0847,0,-4.0697,-4.0696,-4.0738,-4.0765,-4.0802,-4.0747,-4.0766,-4.0801,-4.0857,-4.0871,-4.0907,-4.0969,-4.1017,-4.1006,-4.105,-4.1094,-4.1071,-4.1107,-4.1104,-4.1107,-4.0901,-4.0877,-4.1125,-4.1125,-4.1125,-4.1125,-4.1125,-4.1125,-4.0829,-4.0916,-4.0897,-4.0989,-4.0988,-4.1048,-4.1064,-4.1083,-4.1094,-4.1167,-4.1205,-4.1197,-4.1202,-4.1246,-4.1289,-4.1285,-4.1306,-4.1351,-4.1339,-4.1148,-4.112,-4.1094,-4.1071,-4.1356,-4.1356,-4.1539,-4.1541,-4.1543]},{"header":{"parameterUnit":"m.s-1","parameterCategory":1,"la1":30.2991,"la2":30.254,"lo1":-89.0895,"lo2":-89.0444,"dy":0.0017,"dx":0.0017,"nx":28,"ny":28,"refTime":"2023-09-27T21:00:00:Z","depth":0,"parameterNumber":3,"parameterNumberName":"V-component_of_WINDS"},"data":[0,0,0,0,0,0,0,0,0,0,0,0,0,0,0,0,0,0,0,0,0,0,0,0,0,0,0,0,0,0,0,0,0,0,0,0,0,0,0,0,0,0,0,0,0,0,0,0,0,0,0,0,0,0,0,0,0,0,1.6338,1.6339,0,1.6369,1.6369,1.6369,1.6412,1.6413,1.6414,1.6415,1.6443,1.6443,1.6443,0,0,0,0,0,0,0,0,0,0,0,0,0,1.6315,1.6315,1.6338,1.6339,1.6339,1.6369,1.6369,1.6369,1.6412,1.6413,1.6414,1.6415,1.6443,1.6443,1.6443,0,0,0,0,0,0,0,0,0,0,0,0,0,1.6333,1.6315,1.6338,1.6364,1.6367,1.6369,1.6369,1.637,1.6412,1.6413,1.6414,1.6415,1.6443,1.6443,1.6443,1.6421,0,0,1.6443,1.6443,0,0,0,0,0,0,0,0,1.6332,1.6334,1.636,1.6362,1.6365,1.6388,1.6371,1.6387,1.6412,1.6395,1.6415,1.6416,1.6423,1.6425,1.6428,1.6422,1.6424,1.6443,1.6443,1.6443,1.6443,0,0,0,0,0,0,0,1.6331,1.6333,1.635,1.636,1.6363,1.6373,1.6377,1.6374,1.6402,1.6396,1.6399,1.6403,1.6425,1.6428,1.6429,1.6424,1.6443,1.6443,1.6443,1.6443,1.64,1.6399,0,0,0,0,0,0,1.6326,1.6331,1.6349,1.6351,1.6351,1.6373,1.6377,1.6379,1.6403,1.6407,1.6402,1.6405,1.6427,1.6429,1.643,1.6405,1.6443,1.6443,1.6443,1.6402,1.64,1.6399,0,0,0,0,0,0,1.6325,1.6327,1.6348,1.6342,1.6346,1.6372,1.6374,1.6379,1.6383,1.6407,1.6412,1.64,1.6428,1.643,1.6423,1.6407,1.6443,1.6443,1.6403,1.6401,1.64,1.6355,0,0,0,0,0,0,1.6324,1.6327,1.6319,1.6342,1.6346,1.6341,1.6373,1.6379,1.6383,1.6387,1.6406,1.641,1.6429,1.6423,1.6423,1.6407,1.6444,1.6405,1.6402,1.64,1.6358,1.6352,1.6347,0,0,0,0,0,1.6323,1.6305,1.6319,1.632,1.6337,1.634,1.6342,1.6365,1.6382,1.6374,1.6389,1.641,1.6409,1.6422,1.6422,1.6407,1.6406,1.6403,1.64,1.636,1.6353,1.6347,0,0,0,0,0,0,1.6279,1.6308,1.6324,1.6312,1.6323,1.6347,1.6338,1.6357,1.6362,1.6366,1.6394,1.6398,1.6386,1.6396,1.641,1.6386,1.641,1.6408,1.638,1.6373,1.6367,1.6364,1.6444,0,0,0,0,0,1.6268,1.6268,1.6294,1.6281,1.6286,1.6311,1.6313,1.633,1.6342,1.6347,1.6362,1.6372,1.6374,1.6374,1.6378,1.636,1.6364,1.635,1.6344,1.6339,1.6336,1.6326,1.6319,1.639,1.639,1.639,0,0,1.6245,1.6261,1.6259,1.6273,1.6283,1.6282,1.6314,1.6312,1.6311,1.6346,1.634,1.6351,1.6364,1.6351,1.6347,1.6359,1.6318,1.6336,1.6332,1.6331,1.6323,1.6316,1.631,1.6388,1.6389,1.6389,0,0,1.6201,1.6215,1.6205,1.6215,1.6231,1.6247,1.6245,1.6266,1.6275,1.627,1.6296,1.6295,1.6298,1.6306,1.631,1.627,1.6289,1.6271,1.624,1.623,1.6225,1.622,1.6203,1.6198,1.6268,1.6268,1.6268,0,1.617,1.617,1.6197,1.6193,1.6197,1.623,1.622,1.6228,1.6244,1.6246,1.626,1.6264,1.6276,1.6265,1.6255,1.6258,1.6255,1.6267,1.6223,1.6219,1.6215,1.6199,1.6193,1.6265,1.6265,1.6266,1.6266,0,1.613,1.6129,1.612,1.6134,1.6138,1.6131,1.6156,1.6156,1.6173,1.6188,1.6181,1.6196,1.6203,1.6202,1.6218,1.6193,1.62,1.6219,1.6243,1.6205,1.6191,1.6186,1.6262,1.6263,1.6263,1.6264,0,0,1.6057,1.6088,1.6084,1.609,1.6111,1.611,1.6104,1.6111,1.611,1.612,1.6115,1.6117,1.6134,1.6139,1.6157,1.6149,1.6114,1.6168,1.6169,1.6156,1.6084,1.6068,1.6061,1.6127,1.6126,1.6126,1.6082,0,1.6016,1.6008,1.6032,1.6017,1.6016,1.6048,1.6043,1.6054,1.6068,1.6068,1.6084,1.6084,1.6108,1.6111,1.6104,1.6119,1.6099,1.6123,1.612,1.612,1.6113,1.6054,1.6037,1.5996,1.6077,1.6077,1.6076,0,1.5966,1.5974,1.5959,1.598,1.598,1.5975,1.5983,1.5984,1.5997,1.6008,1.6013,1.6034,1.6029,1.6054,1.6046,1.6061,1.6062,1.6069,1.6068,1.6067,1.6094,1.6049,1.5983,1.5976,1.6068,1.6069,1.6069,0,1.5912,1.5919,1.5911,1.5916,1.5941,1.5936,1.5945,1.596,1.5962,1.597,1.5971,1.5977,1.598,1.5984,1.6005,1.6022,1.5993,1.6021,1.6,1.5999,1.5991,1.599,1.5922,1.5995,1.5995,1.5995,1.5995,0,1.5862,1.5851,1.5887,1.5881,1.587,1.5898,1.5885,1.5898,1.5911,1.5908,1.5936,1.5932,1.5962,1.5961,1.5979,1.5968,1.5969,1.5977,1.5981,1.5973,1.5971,1.5971,1.5974,1.5994,1.5994,1.5994,1.5995,0,1.5798,1.5822,1.5815,1.5839,1.5845,1.5835,1.5855,1.585,1.5867,1.5862,1.5863,1.5888,1.5888,1.5911,1.5916,1.5928,1.5909,1.592,1.5904,1.5907,1.5884,1.5885,1.5811,1.5802,1.5883,1.5882,1.5882,0,1.5763,1.5756,1.5779,1.578,1.5788,1.5788,1.5791,1.5819,1.5821,1.5835,1.5828,1.5832,1.5835,1.5834,1.5852,1.5856,1.5865,1.5839,1.5866,1.5857,1.5862,1.5861,1.5859,1.5833,1.5832,1.5831,1.583,0,1.5698,1.5711,1.5714,1.5721,1.5724,1.5731,1.574,1.5738,1.5769,1.5769,1.577,1.5773,1.5779,1.5781,1.5788,1.5797,1.5817,1.5822,1.5817,1.5807,1.5798,1.58,1.5886,1.5823,1.5824,1.5824,1.5825,1.5825,1.5646,1.564,1.5656,1.5659,1.5669,1.5676,1.5672,1.5689,1.5691,1.5698,1.5714,1.5712,1.5725,1.5737,1.5745,1.5743,1.5756,1.5749,1.5747,1.5744,1.5738,1.58,1.5745,1.5745,1.5745,1.5745,1.5745,0,1.558,1.5592,1.5595,1.5606,1.5608,1.563,1.5641,1.564,1.5638,1.5649,1.5653,1.5653,1.5656,1.5674,1.5678,1.5673,1.5682,1.5673,1.5672,1.5673,1.5728,1.5731,1.5665,1.5665,1.5665,1.5665,1.5665,1.5665,1.5546,1.5537,1.5551,1.5547,1.5559,1.5558,1.5562,1.5568,1.5577,1.5577,1.5579,1.5592,1.5605,1.5611,1.5613,1.5619,1.5617,1.5604,1.5612,1.5662,1.567,1.5677,1.568,1.5604,1.5604,1.5558,1.5557,1.5557]}]]